Flag for U.S.A. Weather past 2 weeks in San Buenaventura, California, U.S.A.

Now
64 °F

Clear.


Feels Like: 64 °F
Forecast: 57 / 74 °F
Wind: 5 mph from Northeast

Location: Oxnard Airport

Current Time: Oct 22, 2014 at 11:57:54 PM

Latest Report: Oct 22, 2014 at 10:51 PM


Visibility: 10 mi

Pressure: 29.94 "Hg

Humidity: 70%

Dew point: 54 °F

Location of San BuenaventuraLocation

Historic Weather in San Buenaventura — Graph

°F

San Buenaventura temperature yesterday

Maximum temperature yesterday: 74 °F (at 3:51 PM)
Minimum temperature yesterday: 57 °F (at 5:51 AM)
Average temperature yesterday: 66 °F

Past Weeks' High & Low Weather Summary

 TemperatureHumidityPressure
High76 °F (Oct 22, 10:51 AM)97% (Oct 13, 6:51 AM)30.02 "Hg (Oct 13, 6:51 AM)
Low57 °F (Oct 8, 6:51 AM)26% (Oct 22, 10:51 AM)29.80 "Hg (Oct 8, 5:51 PM)
Average66 °F74%29.92 "Hg
* Reported Oct 7 10:51 PM — Oct 22 10:51 PM, San Buenaventura, Weather by CustomWeather, © 2014

Note: Actual official high and low records may vary slightly from our data, if they occured in-between our weather recording intervals... More about our weather records

Advertising

San Buenaventura weather history for previous 24 hours

 ConditionsComfort  
Time TempWeatherWind HumidityBarometerVisibility
10:51 PM
Oct 22
64 °FClear.5 mph70%29.94 "Hg10 mi
9:51 PM65 °FClear.5 mph70%29.93 "Hg10 mi
8:51 PM66 °FClear.3 mph70%29.93 "Hg10 mi
7:51 PM69 °FClear.No wind63%29.92 "Hg10 mi
6:51 PM71 °FSunny.No wind61%29.91 "Hg10 mi
5:51 PM71 °FSunny.7 mph66%29.89 "Hg10 mi
4:51 PM72 °FSunny.10 mph66%29.89 "Hg10 mi
3:51 PM73 °FSunny.10 mph66%29.90 "Hg10 mi
2:51 PM74 °FSunny.12 mph53%29.90 "Hg10 mi
1:51 PM75 °FSunny.8 mph43%29.91 "Hg10 mi
12:51 PM75 °FSunny.9 mph52%29.92 "Hg10 mi
11:51 AM75 °FSunny.8 mph45%29.93 "Hg10 mi
10:51 AM76 °FSunny.3 mph26%29.94 "Hg10 mi
9:51 AM74 °FSunny.7 mph31%29.94 "Hg10 mi
8:51 AM67 °FSunny.7 mph39%29.94 "Hg10 mi
7:51 AM62 °FClear.8 mph46%29.92 "Hg10 mi
6:51 AM59 °FClear.7 mph54%29.90 "Hg10 mi
5:51 AM61 °FClear.3 mph50%29.89 "Hg10 mi
4:51 AM59 °FClear.6 mph58%29.87 "Hg10 mi
3:51 AM61 °FClear.5 mph60%29.86 "Hg10 mi
2:51 AM61 °FClear.5 mph62%29.86 "Hg10 mi
1:51 AM63 °FClear.5 mph65%29.86 "Hg10 mi
12:51 AM61 °FClear.6 mph72%29.86 "Hg10 mi
11:51 PM
Oct 21
62 °FClear.5 mph70%29.87 "Hg10 mi
Weather by CustomWeather, © 2014

See weather overviewHow to use our weather pages